RH
27 33 34 37 39 35 36 37 48 60 60 60 60 58 55 52 52 48 47 47 42 39 37 32 32 31 26 24 27 29 32 34 35 34 33 32 33 32 30 29 26 25 23
32 36 33 38 45 48 46 43 46 76 77 71 67 70 64 56 53 52 52 50 45 43 41 36 35 32 27 27 29 32 33 35 34 34 35 35 34 31 32 29 26 24 21
29 32 36 37 46 51 50 55 60 63 71 72 85 80 72 61 57 59 57 54 50 48 44 39 38 31 28 30 31 34 38 38 37 36 37 37 34 31 29 25 24 19 17
29 33 38 39 44 47 53 67 82 72 76 80 91 94 80 66 65 62 61 58 54 51 47 41 38 31 31 32 34 38 41 39 38 38 38 37 32 30 29 27 20 14 18
35 35 42 44 42 44 47 74 94 83 87 86 95 95 88 77 75 66 63 61 58 54 50 45 37 34 35 34 38 43 41 39 40 41 39 34 32 30 28 21 18 22 33
37 42 44 47 46 45 52 80 88 85 87 90 97 96 94 83 78 73 68 65 61 57 51 44 38 38 36 39 44 45 41 39 42 42 38 35 34 28 24 19 27 39 45
39 42 43 44 44 49 66 85 76 73 87 92 98 97 95 92 87 81 72 70 63 58 50 43 41 39 40 43 47 48 47 46 45 40 37 35 31 25 20 26 42 58 68
39 38 36 39 43 56 57 58 62 68 84 94 98 97 94 95 90 83 79 74 65 58 49 45 42 42 43 46 50 48 46 45 41 36 36 32 24 17 25 49 61 70 80
44 35 37 39 41 48 49 49 61 71 86 96 98 98 93 94 89 86 82 71 64 54 50 45 44 44 45 51 53 49 46 42 37 34 30 21 16 20 48 61 75 83 85
48 42 39 35 39 44 47 48 61 69 85 93 99 98 95 93 90 88 81 69 59 55 49 48 46 47 51 54 50 49 45 40 37 31 21 14 16 41 60 75 82 94 99
56 48 44 37 39 41 46 49 62 73 86 94 98 98 95 93 91 87 75 64 60 53 51 48 50 54 54 53 54 51 45 44 38 26 16 13 24 52 62 80 93 98 98
63 54 49 41 38 40 46 52 65 75 89 95 98 98 94 92 90 83 71 67 58 55 51 51 55 56 56 55 55 50 48 46 34 20 14 13 35 53 70 83 97 99 98
58 56 49 41 37 39 50 56 69 80 94 96 98 98 95 91 89 81 74 66 59 54 52 54 57 57 58 55 56 54 53 41 28 17 15 15 43 62 84 90 96 97 99
53 48 42 37 38 43 53 60 69 80 94 96 98 97 96 91 87 78 72 65 59 56 57 58 59 59 57 53 57 59 53 39 24 15 14 20 49 68 85 89 96 98 99
56 50 45 42 42 49 53 60 71 85 95 96 97 97 95 90 81 77 70 62 59 58 58 59 58 58 54 61 63 58 48 34 17 13 15 25 53 71 83 87 95 98 98
53 48 44 44 52 54 54 61 73 92 97 99 98 95 96 88 83 78 71 60 59 59 57 57 61 58 62 64 61 54 43 27 15 14 18 28 55 72 83 90 93 98 97
51 48 49 56 60 60 63 64 78 96 98 98 98 96 93 87 84 77 68 61 60 58 57 71 65 62 63 66 58 48 38 18 17 18 20 27 53 69 81 85 91 97 97
56 60 67 73 71 66 67 72 91 98 98 98 98 95 92 93 84 76 68 64 65 62 70 77 67 66 67 66 56 42 33 19 19 21 23 28 52 64 81 85 91 95 94
88 95 91 82 71 65 68 84 97 97 97 98 97 94 93 92 82 77 71 66 64 69 76 71 71 71 70 61 47 41 26 21 21 20 24 30 51 63 75 79 89 94 94
97 93 82 76 71 68 75 93 95 98 98 98 97 93 89 84 79 76 73 68 69 72 72 71 76 73 64 53 44 34 22 23 21 18 22 30 50 62 74 80 86 90 92
98 97 96 88 81 79 88 96 98 98 97 97 97 94 88 82 78 73 70 74 79 77 74 77 72 64 60 54 38 28 22 23 21 18 17 25 46 56 79 83 81 85 91
97 97 96 92 91 94 97 98 98 98 97 96 95 92 85 78 73 78 86 84 80 78 83 73 66 60 60 48 34 26 23 23 22 19 17 17 33 50 64 80 81 79 84
98 98 97 97 98 97 98 98 98 97 97 94 90 86 82 80 85 86 83 83 83 84 79 73 68 62 54 42 33 29 25 24 24 23 19 16 14 36 52 71 78 78 86
98 98 98 98 97 97 97 98 98 98 98 97 97 96 95 93 89 88 89 85 82 78 74 70 65 55 43 35 33 31 28 29 25 24 23 18 15 16 41 56 69 81 87
97 98 98 98 97 97 97 97 97 97 96 96 96 95 93 95 94 89 88 83 77 71 68 60 49 41 36 37 34 31 24 24 26 25 23 21 20 18 23 48 58 64 82
97 97 97 98 97 97 97 97 97 97 97 97 96 95 91 87 88 88 83 80 71 63 58 53 43 39 39 35 31 30 29 26 24 25 25 24 22 22 21 33 51 61 71